This is the latest recevied weather packets stored in our database for station/object K5SVV. If no packets are shown the sender has not sent any weather packets the latest 1 day(s).
| Time | Temp. | Humidity | Pressure | Rain* | Wind** | Luminosity | Snow |
|---|---|---|---|---|---|---|---|
| 1778040710 | 21.67° C | 77% | 1007.7 hPa | 0 mm | - | 0 W/m² | - |
| 1778040407 | 21.67° C | 77% | 1007.6 hPa | 0 mm | - | 0 W/m² | - |
| 1778039796 | 22.22° C | 76% | 1007.6 hPa | 0 mm | - | 0 W/m² | - |
| 1778039492 | 22.22° C | 76% | 1007.6 hPa | 0 mm | - | 0 W/m² | - |
| 1778038886 | 22.22° C | 75% | 1007.1 hPa | 0 mm | - | 0 W/m² | - |
| 1778038583 | 22.22° C | 76% | 1007.4 hPa | 0 mm | - | 0 W/m² | - |
| 1778037978 | 22.22° C | 76% | 1007.1 hPa | 0 mm | - | 0 W/m² | - |
| 1778037372 | 22.78° C | 76% | 1007.4 hPa | 0 mm | - | 0 W/m² | - |
| 1778037068 | 22.78° C | 76% | 1007.4 hPa | 0 mm | - | 0 W/m² | - |
| 1778036767 | 22.78° C | 75% | 1007.1 hPa | 0 mm | - | 0 W/m² | - |
| 1778036464 | 23.33° C | 76% | 1007.1 hPa | 0 mm | - | 0 W/m² | - |
| 1778036161 | 23.89° C | 75% | 1007 hPa | 0 mm | - | 0 W/m² | - |
| 1778035554 | 25° C | 78% | 1006.8 hPa | 0 mm | - | 0 W/m² | - |
| 1778035250 | 25.56° C | 84% | 1006.4 hPa | 0 mm | - | 0 W/m² | - |
| 1778034946 | 25.56° C | 85% | 1006.1 hPa | 0 mm | - | 0 W/m² | - |
| 1778034644 | 25.56° C | 85% | 1006 hPa | 0 mm | - | 0 W/m² | - |
| 1778034039 | 25.56° C | 85% | 1005.4 hPa | 0 mm | - | 0 W/m² | - |
| 1778033736 | 25.56° C | 84% | 1005.5 hPa | 0 mm | - | 0 W/m² | - |
| 1778033131 | 25.56° C | 84% | 1005.3 hPa | 0 mm | - | 0 W/m² | - |
| 1778032828 | 25.56° C | 84% | 1005 hPa | 0 mm | - | 0 W/m² | - |
| 1778032222 | 25.56° C | 84% | 1005 hPa | 0 mm | - | 0 W/m² | - |
| 1778031010 | 25.56° C | 83% | 1004.7 hPa | 0 mm | - | 0 W/m² | - |
| 1778030706 | 26.11° C | 83% | 1004.8 hPa | 0 mm | - | 0 W/m² | - |
| 1778030101 | 26.11° C | 82% | 1004.6 hPa | 0 mm | - | 0 W/m² | - |
| 1778029797 | 26.11° C | 82% | 1004.2 hPa | 0 mm | - | 0 W/m² | - |
* Rain latest hour (hover to see other rain measurements)
** Current wind speed in m/s (hover to see current wind gust speed)